User: anonymous   Login
Location: Unspecified
(17.6330°N, 0.0000°E)
Time: 03:27:20
(UTC+00:00)
Language:

S-56A Canister/Altair - Orbit

View from above orbital plane
View from above orbital plane
View from above satellite
View from above satellite

Ground track
Ground track

The orbit data is extracted from the following two-line orbital elements,

1    82U 61004B   19165.90260953 +.00000035 +00000-0 +77519-4 0  9998
2    82 038.8545 123.0330 1174544 104.8406 268.5120 12.26037501762574
Epoch (UTC): 14 June 2019 21:39:45
Eccentricity: 0.1174544
inclination: 38.8545°
perigee height: 633 km
apogee height: 2499 km
right ascension of ascending node: 123.0330°
argument of perigee: 104.8406°
revolutions per day: 12.26037501
mean anomaly at epoch: 268.5120°
orbit number at epoch: 76257

The dashed part of the orbit path shows where the satellite is in the earth's shadow,  

DLR